Austin, TX

4:04 AM CDT on April 29, 2017 (GMT -0500)
Austin

Weather History for KATT - May, 2013

Change the Weather History Date:

Sunday, May 26, 2013

  Actual Average Record
Temperature  
Mean Temperature 79 °F 79 °F  
Max Temperature 87 °F 89 °F 96 °F (1958)
Min Temperature 71 °F 69 °F 47 °F (1913)
Degree Days  
Heating Degree Days 0 0  
Month to date heating degree days 12 0  
Since 1 July heating degree days 1251 1537  
Cooling Degree Days 14 14  
Month to date cooling degree days 265 288  
Year to date cooling degree days 537 540  
Growing Degree Days 28 (Base 50)    
Moisture  
Dew Point 70 °F    
Average Humidity 75    
Maximum Humidity 93    
Minimum Humidity 57    
Precipitation  
Precipitation 0.78 in 0.16 in 3.26 in (1957)
Month to date precipitation 6.03 3.61  
Year to date precipitation 13.68 12.70  
Snow  
Snow 0.00 in - - ()
Month to date snowfall 0.0  
Since 1 July snowfall T  
Snow Depth 0.00 in    
Sea Level Pressure  
Sea Level Pressure 30.05 in    
Wind  
Wind Speed 7 mph (SSE)    
Max Wind Speed 15 mph    
Max Gust Speed 27 mph    
Visibility 8 miles    
Events Fog , Rain    
T = Trace of Precipitation, MM = Missing Value Source: NWS Daily Summary

Daily Weather History Graph

Daily Weather History Graph

Search for Another Location

Airport or City:

Trip Planner

Search our weather history database for the weather conditions in past years. The results will help you decide how hot, cold, wet, or windy it might be!

Date:

Astronomy

May. 26, 2013 Rise Set
Actual Time 6:31 AM CDT 8:25 PM CDT
Civil Twilight 6:04 AM CDT 8:52 PM CDT
Nautical Twilight 5:32 AM CDT 9:24 PM CDT
Astronomical Twilight 4:57 AM CDT 9:59 PM CDT
Moon 10:15 PM CDT (5/26) 8:01 AM CDT (5/26)
Length of Visible Light 14h 47m
Length of Day
13h 53m
Waning Gibbous, 96% of the Moon is Illuminated
May 26
Waning Gibbous
May 31
Last Quarter
Jun 8
New
Jun 16
First Quarter
Jun 23
Full

Hourly Weather History & Observations

Time (CDT) Temp. Heat Index Dew Point Humidity Pressure Visibility Wind Dir Wind Speed Gust Speed Precip Events Conditions
12:02 AM 73.9 °F - 70.0 °F 87% 30.10 in 10.0 mi SE 5.8 mph - N/A   Overcast
12:20 AM 73.9 °F - 71.1 °F 91% 30.11 in 10.0 mi Variable 4.6 mph - N/A   Overcast
12:31 AM 73.9 °F - 71.1 °F 91% 30.11 in 10.0 mi SE 4.6 mph - N/A   Overcast
12:51 AM 73.9 °F - 71.1 °F 91% 30.07 in 10.0 mi Variable 5.8 mph - N/A   Overcast
12:58 AM 73.9 °F - 70.0 °F 87% 30.10 in 10.0 mi SE 5.8 mph - N/A   Overcast
1:51 AM 73.9 °F - 70.0 °F 87% 30.05 in 10.0 mi Variable 6.9 mph - N/A   Overcast
2:35 AM 73.9 °F - 70.0 °F 87% 30.08 in 10.0 mi Variable 5.8 mph - N/A   Overcast
2:47 AM 73.4 °F - 69.8 °F 88% 30.07 in 10.0 mi SSE 4.6 mph - N/A   Overcast
2:51 AM 73.9 °F - 70.0 °F 87% 30.04 in 10.0 mi SSE 6.9 mph - N/A   Overcast
3:49 AM 73.4 °F - 69.8 °F 88% 30.08 in 10.0 mi Variable 3.5 mph - 0.00 in   Overcast
3:51 AM 73.9 °F - 70.0 °F 87% 30.04 in 10.0 mi SSE 5.8 mph - 0.00 in   Overcast
4:51 AM 73.9 °F - 70.0 °F 87% 30.04 in 10.0 mi SSE 5.8 mph - N/A   Overcast
5:51 AM 73.0 °F - 70.0 °F 90% 30.04 in 10.0 mi SSE 5.8 mph - N/A   Overcast
6:21 AM 73.0 °F - 71.1 °F 93% 30.08 in 1.8 mi SSW 5.8 mph - 0.02 in Rain Rain
6:30 AM 71.1 °F - 69.1 °F 93% 30.08 in 0.5 mi Variable 6.9 mph 17.3 mph 0.41 in Fog , Rain Heavy Rain
6:34 AM 71.1 °F - 69.1 °F 93% 30.08 in 0.5 mi Variable 6.9 mph 17.3 mph 0.65 in Fog , Rain Heavy Rain
6:47 AM 71.1 °F - 69.1 °F 93% 30.05 in 2.5 mi South 4.6 mph - 0.76 in Rain Light Rain
6:51 AM 71.1 °F - 70.0 °F 96% 30.08 in 4.0 mi SSE 4.6 mph - 0.01 in Rain Light Rain
7:02 AM 72.0 °F - 70.0 °F 93% 30.08 in 6.0 mi SSE 4.6 mph - 0.02 in Rain Light Rain
7:20 AM 72.0 °F - 71.1 °F 97% 30.08 in 7.0 mi SE 4.6 mph - 0.02 in Rain Light Rain
7:40 AM 73.0 °F - 71.1 °F 93% 30.08 in 4.0 mi Variable 5.8 mph - 0.02 in   Overcast
7:51 AM 73.0 °F - 71.1 °F 93% 30.05 in 4.0 mi SSE 8.1 mph - 0.02 in   Overcast
8:51 AM 73.9 °F - 72.0 °F 93% 30.06 in 6.0 mi South 6.9 mph - N/A   Overcast
9:36 AM 75.9 °F - 73.0 °F 91% 30.10 in 8.0 mi Variable 5.8 mph - N/A   Overcast
9:51 AM 75.9 °F - 72.0 °F 87% 30.06 in 10.0 mi South 6.9 mph - N/A   Overcast
10:06 AM 77.0 °F - 72.0 °F 84% 30.09 in 10.0 mi Variable 5.8 mph - N/A   Overcast
10:51 AM 79.0 °F - 71.1 °F 77% 30.06 in 10.0 mi SSE 8.1 mph - N/A   Overcast
11:21 AM 80.1 °F 83.6 °F 71.1 °F 74% 30.10 in 10.0 mi South 10.4 mph - 0.00 in   Mostly Cloudy
11:51 AM 82.9 °F 88.0 °F 72.0 °F 69% 30.05 in 10.0 mi South 5.8 mph 17.3 mph 0.00 in   Mostly Cloudy
12:51 PM 82.0 °F 85.9 °F 70.0 °F 67% 30.03 in 10.0 mi South 8.1 mph 17.3 mph N/A   Mostly Cloudy
1:51 PM 86.0 °F 90.7 °F 70.0 °F 59% 30.01 in 10.0 mi South 8.1 mph 19.6 mph N/A   Mostly Cloudy
2:51 PM 86.0 °F 91.5 °F 71.1 °F 61% 30.00 in 10.0 mi South 9.2 mph 18.4 mph 0.00 in   Mostly Cloudy
3:51 PM 84.9 °F 89.4 °F 70.0 °F 61% 29.99 in 10.0 mi South 10.4 mph 18.4 mph N/A   Partly Cloudy
4:51 PM 82.0 °F 84.9 °F 68.0 °F 62% 29.98 in 10.0 mi SSE 9.2 mph 18.4 mph N/A   Partly Cloudy
5:51 PM 82.9 °F 86.5 °F 69.1 °F 63% 29.96 in 10.0 mi SSE 8.1 mph - N/A   Clear
6:51 PM 82.9 °F 86.5 °F 69.1 °F 63% 29.96 in 10.0 mi Variable 4.6 mph - N/A   Partly Cloudy
7:51 PM 81.0 °F 83.8 °F 68.0 °F 65% 29.96 in 10.0 mi South 6.9 mph 16.1 mph N/A   Clear
8:51 PM 80.1 °F 82.7 °F 68.0 °F 67% 29.96 in 10.0 mi Variable 6.9 mph 18.4 mph N/A   Clear
9:51 PM 78.1 °F - 66.0 °F 66% 29.98 in 10.0 mi SSE 8.1 mph - N/A   Clear
10:51 PM 75.9 °F - 66.9 °F 74% 30.01 in 10.0 mi SSE 6.9 mph - N/A   Clear
11:51 PM 75.0 °F - 66.9 °F 76% 30.01 in 10.0 mi South 5.8 mph - N/A   Clear